Regional Weather Roundup
Issued by NWS

Home | Current Version | Previous Version | Text Only | Print | Product List | Glossary On
Versions: 1 2 3 4 5 6 7 8 9 10 11 12 13 14 15 16 17 18 19 20 21 22 23 24 25 26 27 28 29 30 31 32 33 34 35 36 37 38 39 40 41 42 43 44 45 46 47 48 49 50
000
ASUS43 KBIS 041920
RWRND

NORTH DAKOTA REGIONAL WEATHER ROUNDUP
NATIONAL WEATHER SERVICE BISMARCK ND
100 PM CST WED MAR 04 2015

NOTE: "FAIR" INDICATES FEW OR NO CLOUDS BELOW 12,000 FEET WITH NO
SIGNIFICANT WEATHER AND/OR OBSTRUCTIONS TO VISIBILITY.


NDZ001>003-009>011-017-042000-
NORTHWEST NORTH DAKOTA

CITY           SKY/WX    TMP DP  RH WIND       PRES   REMARKS
WILLISTON      NOT AVBL
MINOT AFB      SUNNY     -3 -12  65 NW23      30.32R WCI -27
$$

NDZ018>021-031>035-040>046-042000-
SOUTHWEST NORTH DAKOTA

CITY           SKY/WX    TMP DP  RH WIND       PRES   REMARKS
BISMARCK       NOT AVBL
DICKINSON      SUNNY      7 -10  46 NW13      30.23F WCI  -9
GARRISON         N/A     -4 -14  62 NW17      30.33R WCI -26
$$

NDZ004>008-012>016-024-026-027-054-042000-
NORTHEAST NORTH DAKOTA

CITY           SKY/WX    TMP DP  RH WIND       PRES   REMARKS
GRND FRKS AFB  MOSUNNY    2 -11  55 NW20G25   30.31R WCI -19
DEVILS LAKE    SUNNY     -2 -15  55 NW21      30.30R WCI -25
$$

NDZ022-023-025-028>030-036>039-047>053-042000-
SOUTHEAST NORTH DAKOTA

CITY           SKY/WX    TMP DP  RH WIND       PRES   REMARKS
FARGO          NOT AVBL
JAMESTOWN      CLOUDY    -1 -12  59 NW17      30.30R WCI -22
$$




USA.gov is the U.S. government's official web portal to all federal, state and local government web resources and services.